Wind_Speed
71 72 67 69 65 62 67 69 68 66 66 67 67 64 63 60 57 54 52 49 49 47 43 42 37 35 31 32 30 26 26 23 21 22 17 17 16 14 14 12 11 9 6 6 5 6 5 4 6
76 76 75 70 68 68 69 64 62 65 68 66 66 66 64 62 61 58 55 52 50 49 46 44 41 37 36 35 32 34 27 23 21 22 21 18 17 15 16 15 13 10 7 6 6 7 5 5 6
69 80 74 71 72 74 71 64 61 61 63 65 65 69 68 66 64 61 59 55 54 52 50 46 43 41 39 35 35 33 31 27 24 23 22 20 18 17 19 17 15 13 10 8 6 6 6 6 8
62 74 75 68 72 77 76 69 61 62 61 60 59 63 68 69 67 65 62 58 56 55 52 49 46 44 40 36 37 33 33 29 26 24 22 23 20 20 21 20 19 16 13 11 8 8 8 8 9
52 57 69 68 73 78 78 72 69 65 60 59 56 60 64 67 68 66 65 64 60 58 54 52 48 46 43 39 38 36 34 32 26 27 25 25 22 22 24 23 22 20 17 13 11 11 10 11 11
50 45 57 62 76 79 80 75 69 71 63 61 61 61 59 61 64 66 69 66 61 60 58 54 52 49 44 41 39 38 35 34 30 28 28 28 25 23 26 27 24 23 20 16 13 14 13 15 15
47 48 48 58 69 80 79 76 71 72 69 65 65 64 60 58 59 61 63 65 66 64 62 58 55 53 49 45 41 40 38 37 34 30 28 29 28 27 27 30 27 24 21 17 16 17 17 18 18
47 50 49 56 66 70 77 76 75 74 71 70 66 65 63 60 57 56 58 62 64 64 62 60 58 55 51 48 45 43 40 39 36 33 31 30 29 30 30 32 30 28 26 22 19 18 20 21 23
45 49 53 55 63 66 69 76 77 75 75 71 71 68 64 59 56 56 55 58 62 62 61 62 58 57 55 51 49 46 43 42 39 38 34 32 31 31 32 33 33 31 29 28 25 22 21 22 24
49 50 55 54 56 63 67 71 77 76 76 72 72 74 68 64 58 55 57 57 62 65 64 62 60 57 57 54 52 48 47 45 43 41 39 36 33 34 33 37 36 34 33 31 30 27 26 23 24
49 51 53 56 55 58 65 70 73 79 78 78 75 74 74 71 66 59 57 57 58 65 66 65 64 59 59 56 54 53 50 48 47 44 42 39 37 35 36 38 40 39 37 36 34 32 30 30 28
44 52 53 55 58 57 61 67 72 75 80 79 77 76 76 75 71 67 62 58 57 61 68 67 64 60 60 59 58 57 53 51 49 47 47 43 40 38 38 39 41 42 41 39 37 35 34 33 32
47 46 58 56 59 59 58 61 69 73 77 81 78 77 76 74 72 69 65 63 59 58 64 70 69 63 59 59 59 58 56 54 52 49 51 48 44 43 41 40 41 42 43 42 41 40 37 36 34
43 42 48 59 59 61 60 60 65 70 73 79 80 80 78 74 73 69 66 66 61 58 58 66 69 69 63 60 60 59 58 55 54 52 53 52 50 47 45 44 43 43 43 43 41 40 40 37 36
39 36 39 47 57 61 63 65 64 68 73 74 79 81 79 76 74 71 68 67 60 54 57 60 67 68 66 62 59 59 59 57 56 55 55 55 53 51 49 48 47 44 44 44 42 42 40 39 39
38 32 32 37 45 56 65 67 69 69 74 75 78 80 81 80 76 74 72 69 64 62 60 53 57 67 67 68 62 59 57 57 58 56 57 57 57 55 54 50 50 48 46 45 44 44 43 43 41
38 31 27 32 40 51 63 71 65 66 70 74 76 82 82 80 78 73 72 71 69 67 61 57 51 64 67 68 67 62 60 59 59 58 59 60 60 58 56 56 52 52 49 49 48 47 47 46 46
45 30 27 29 36 43 53 65 66 68 70 73 75 76 83 83 79 77 74 71 71 69 63 58 57 54 68 69 69 66 63 61 61 61 60 60 60 59 59 59 58 56 55 52 51 51 51 51 50
52 35 27 29 31 37 43 57 66 67 72 73 76 76 78 84 82 79 80 76 74 70 67 63 62 60 58 66 71 67 67 65 63 61 58 59 60 61 62 61 60 58 56 55 55 55 55 55 55
54 41 32 27 31 33 37 45 58 66 71 74 75 76 76 79 84 83 80 82 77 74 71 68 64 62 59 58 59 55 64 67 74 67 63 63 62 64 65 65 65 64 62 62 61 60 60 61 60
57 45 35 30 28 31 38 41 49 62 68 73 75 77 78 78 79 83 82 80 80 78 77 74 69 64 66 62 56 67 52 63 48 74 75 67 68 66 64 64 65 67 67 68 67 66 66 64 64
58 48 39 32 28 25 34 41 45 52 65 70 74 76 79 79 80 80 82 82 80 79 77 78 78 73 68 67 65 60 71 62 45 76 68 72 78 73 69 67 66 65 65 66 66 66 66 65 62
59 51 41 31 26 24 26 36 41 48 55 68 71 76 78 79 81 82 80 80 81 81 80 77 78 79 78 72 70 66 68 71 79 72 67 44 50 69 80 71 69 68 69 71 70 69 67 65 64
61 51 43 31 22 20 24 29 36 42 50 57 71 75 76 80 82 84 85 83 81 82 82 83 80 82 81 79 74 73 69 72 74 73 70 69 53 71 64 73 77 76 76 76 77 75 72 68 66
62 54 42 31 19 14 20 24 32 38 45 49 55 68 76 76 81 83 85 84 84 83 84 85 85 84 87 85 82 78 77 73 73 78 76 78 84 84 80 84 83 77 78 79 80 79 75 76 75
61 53 46 32 21 13 14 19 25 35 40 44 48 52 65 72 74 80 84 86 86 85 86 86 87 87 87 87 88 85 83 78 75 74 81 76 75 74 69 78 78 74 77 81 79 81 82 81 81
60 52 46 38 24 18 13 14 17 25 34 41 44 46 50 57 69 77 77 84 87 87 86 87 89 91 91 90 90 90 89 88 84 79 74 73 72 73 70 69 78 75 77 78 83 81 79 82 83
55 50 42 36 28 21 15 11 10 13 21 30 39 43 46 49 53 58 69 78 80 86 88 87 88 90 92 93 95 95 93 92 91 90 85 78 75 71 69 69 69 71 72 72 73 73 72 77 76
53 47 42 33 25 19 16 10 6 4 8 14 23 32 39 43 45 49 53 60 71 82 85 90 92 92 93 94 95 96 97 97 96 94 92 88 84 80 77 72 68 68 68 69 68 63 64 68 75
52 46 37 31 25 16 13 10 3 4 2 5 10 14 19 26 32 39 44 48 55 65 76 88 92 95 97 97 98 98 98 98 98 97 93 92 92 89 84 81 78 72 68 67 62 59 68 73 79
Wind_Direction
248 245 246 245 244 242 243 241 238 240 240 240 243 243 243 240 239 241 241 244 247 251 253 257 257 261 262 268 270 278 283 292 296 296 306 302 296 274 240 212 222 222 227 251 263 270 287 316 312
247 246 243 243 245 243 241 241 241 239 240 241 241 243 243 242 242 241 242 243 245 248 251 254 255 257 260 262 265 273 273 281 289 295 298 293 290 268 237 218 228 232 234 252 272 278 292 313 295
255 247 242 242 243 243 241 239 240 238 239 240 242 242 241 243 242 241 242 243 245 247 250 250 253 255 256 256 261 267 266 273 277 286 292 290 287 267 239 230 234 239 238 245 268 274 272 290 282
255 251 248 240 241 243 242 237 235 236 236 238 239 241 243 244 243 244 242 243 244 245 249 250 252 254 254 251 256 256 259 261 270 275 283 285 281 269 242 241 237 242 245 246 255 250 260 260 282
264 253 249 242 237 240 240 238 234 235 235 234 235 238 240 243 244 243 242 242 244 246 247 249 249 249 250 252 251 252 253 259 263 267 278 276 272 265 251 243 241 247 250 250 251 250 250 243 261
270 252 245 241 237 236 239 238 235 236 235 235 235 234 235 238 241 243 244 243 241 243 247 247 248 247 247 248 246 250 249 255 255 261 272 275 268 262 254 247 241 243 249 249 247 248 248 255 271
267 260 245 244 239 236 236 237 233 233 233 232 233 235 234 233 235 239 240 242 241 242 244 244 244 245 245 245 243 247 248 250 251 256 265 270 267 260 249 246 243 244 249 251 251 248 248 254 263
269 263 249 241 240 237 234 234 233 233 231 230 232 234 234 233 230 233 235 237 237 237 238 240 241 242 242 242 242 244 245 247 248 249 258 260 265 261 251 245 243 246 248 252 255 259 256 258 261
268 261 254 246 241 241 235 233 232 233 232 228 229 232 232 230 228 228 229 231 231 231 232 233 236 239 240 240 241 243 242 244 244 245 250 253 260 260 256 252 247 246 249 253 257 260 260 262 267
280 259 259 253 245 239 235 233 231 230 231 228 227 230 230 231 231 230 228 229 229 228 228 229 230 235 237 237 239 241 243 242 243 245 245 247 253 257 257 251 249 247 249 252 256 261 266 270 276
275 267 256 257 247 241 234 232 231 229 229 228 227 228 229 230 232 232 232 228 228 228 228 226 228 231 233 236 238 239 243 242 244 243 243 244 250 253 254 252 250 249 250 253 257 263 269 272 277
286 263 262 253 252 242 238 231 230 228 225 229 228 227 229 229 230 233 235 235 234 232 228 227 227 229 233 234 236 238 242 240 242 243 241 241 244 248 255 253 253 253 254 255 258 263 268 271 275
288 273 260 260 251 246 239 235 232 228 226 226 228 228 228 228 229 230 233 235 233 232 232 229 226 227 232 234 235 237 239 241 241 242 245 243 239 244 248 254 255 255 256 258 262 266 266 270 274
300 285 264 256 249 244 240 235 232 230 227 225 227 229 227 226 228 229 230 231 234 235 237 234 229 228 227 233 234 236 239 239 243 243 243 246 243 242 244 248 252 254 257 259 261 264 268 269 271
309 288 270 256 246 239 236 233 231 230 228 226 223 227 228 225 226 225 227 230 228 232 233 233 233 230 227 232 235 237 238 240 242 246 246 245 248 247 244 246 249 252 256 259 261 262 263 266 267
321 298 272 255 244 236 232 231 230 227 227 225 223 223 227 227 224 225 225 228 226 225 233 233 234 234 230 230 231 235 242 242 244 247 248 249 249 250 251 247 251 253 253 258 261 263 263 264 266
333 312 284 255 243 235 231 228 230 229 229 229 226 223 225 226 224 224 226 227 230 228 232 230 233 233 232 231 233 236 239 242 246 248 251 251 252 251 251 252 249 251 252 253 255 258 261 264 267
338 324 295 269 244 236 234 230 229 228 227 229 229 228 226 225 227 225 225 227 229 231 231 231 231 232 230 232 232 234 238 243 247 247 249 253 254 255 253 254 253 251 253 253 255 257 260 264 268
342 331 306 281 258 242 235 232 229 227 228 227 228 227 227 228 227 227 224 226 227 230 231 230 233 235 233 231 233 235 237 244 247 247 251 252 253 256 254 253 255 257 257 257 258 261 263 265 268
345 333 316 292 270 248 239 234 231 228 227 228 227 228 228 229 228 229 229 226 226 226 229 231 232 234 238 231 228 227 250 247 245 247 249 248 249 252 254 255 256 257 259 260 260 261 263 265 267
347 338 324 303 279 258 240 233 232 231 228 228 228 228 228 229 231 230 230 230 229 229 228 228 228 233 237 236 237 227 228 230 257 244 245 248 249 248 253 258 260 262 261 261 261 263 265 268 271
349 338 327 310 287 268 249 235 229 231 231 228 228 228 228 229 230 233 231 231 231 229 231 230 230 228 233 237 238 234 219 220 240 247 244 252 249 248 248 250 254 258 262 265 267 269 269 272 274
351 342 333 318 295 268 255 243 232 230 231 231 228 228 229 229 229 231 233 232 231 230 231 234 233 233 233 232 236 237 238 236 236 242 240 252 254 253 248 249 252 256 259 261 262 264 267 268 268
348 346 338 324 308 275 262 245 235 230 228 231 231 228 229 229 229 230 232 233 231 231 232 232 234 234 234 235 235 235 236 240 242 240 241 241 235 249 252 255 254 258 260 261 262 266 265 265 269
347 346 343 332 320 287 265 257 242 232 231 231 233 232 230 231 232 232 233 234 234 233 232 234 234 235 235 234 234 236 239 238 237 244 244 245 250 254 255 259 258 260 262 264 264 264 266 266 269
347 346 342 340 333 315 281 266 249 240 234 234 235 236 234 233 235 235 235 236 236 234 235 234 236 237 238 238 237 236 236 237 241 238 242 244 245 248 249 255 257 258 260 262 264 264 265 267 269
346 346 340 339 341 338 311 282 263 249 244 241 239 239 240 238 238 237 238 237 237 237 236 235 236 238 238 238 238 239 239 237 237 237 240 242 246 248 251 253 259 260 261 265 267 267 270 273 274
345 342 338 336 340 338 342 321 285 265 253 245 242 242 242 243 242 242 241 240 241 238 238 238 238 239 239 240 239 239 239 240 240 239 238 238 242 244 247 250 253 253 254 257 263 269 273 273 273
344 342 334 330 334 334 336 341 355 292 259 249 242 242 244 247 249 248 246 244 243 241 241 239 238 239 240 240 241 241 240 240 240 241 240 241 243 243 243 242 245 251 256 257 262 265 266 266 269
343 343 331 329 327 322 321 325 341 2 348 285 252 246 249 252 253 250 247 247 246 243 241 240 240 240 240 241 241 241 242 242 242 241 241 241 244 245 246 247 248 247 248 254 257 257 262 257 267
Height
10745 10746 10748 10752 10757 10757 10757 10765 10773 10776 10779 10784 10787 10793 10797 10803 10808 10812 10817 10821 10825 10829 10832 10834 10837 10838 10840 10842 10844 10845 10845 10844 10844 10843 10842 10841 10839 10838 10838 10838 10838 10838 10838 10837 10838 10837 10838 10837 10837
10731 10732 10735 10739 10744 10743 10744 10756 10762 10766 10769 10774 10779 10783 10786 10792 10799 10802 10808 10813 10818 10822 10826 10828 10831 10834 10835 10837 10840 10840 10841 10841 10841 10841 10840 10839 10837 10836 10836 10836 10836 10836 10836 10836 10836 10836 10836 10836 10835
10718 10718 10722 10726 10732 10724 10735 10746 10751 10754 10758 10764 10769 10772 10775 10781 10788 10793 10800 10805 10810 10815 10819 10822 10824 10827 10830 10832 10834 10836 10837 10838 10838 10838 10837 10836 10834 10834 10833 10834 10834 10834 10835 10835 10834 10834 10834 10833 10833
10703 10705 10710 10715 10712 10711 10718 10732 10739 10741 10747 10754 10758 10762 10764 10771 10779 10785 10791 10797 10801 10806 10810 10814 10818 10821 10823 10826 10828 10831 10833 10834 10835 10834 10834 10833 10832 10831 10831 10831 10831 10831 10831 10832 10832 10832 10832 10831 10831
10689 10691 10695 10700 10694 10692 10703 10718 10726 10728 10737 10743 10747 10749 10754 10761 10767 10773 10780 10787 10792 10797 10801 10805 10810 10813 10816 10819 10822 10824 10827 10829 10830 10831 10830 10829 10829 10828 10828 10828 10828 10828 10829 10830 10830 10830 10830 10829 10828
10673 10676 10680 10679 10674 10677 10687 10702 10714 10717 10726 10732 10735 10740 10744 10750 10755 10762 10770 10777 10781 10786 10791 10795 10801 10804 10808 10811 10815 10818 10821 10823 10824 10826 10826 10825 10825 10824 10824 10825 10825 10825 10826 10826 10827 10827 10828 10827 10826
10662 10660 10664 10663 10658 10665 10674 10688 10699 10701 10714 10720 10723 10727 10733 10738 10744 10749 10758 10764 10771 10776 10780 10785 10790 10795 10799 10804 10807 10811 10814 10816 10818 10820 10821 10821 10821 10819 10820 10821 10821 10822 10822 10823 10823 10823 10824 10824 10823
10649 10647 10649 10646 10645 10650 10666 10673 10682 10689 10698 10708 10712 10715 10719 10727 10734 10739 10746 10752 10758 10764 10769 10775 10779 10784 10790 10795 10799 10802 10806 10810 10812 10814 10816 10816 10816 10816 10816 10816 10817 10818 10819 10818 10819 10819 10821 10821 10820
10637 10635 10633 10632 10633 10641 10652 10657 10666 10675 10683 10693 10700 10701 10708 10716 10723 10729 10734 10740 10745 10751 10759 10765 10770 10775 10780 10785 10790 10794 10799 10803 10805 10808 10809 10811 10812 10811 10811 10812 10812 10814 10815 10815 10815 10815 10815 10816 10816
10623 10620 10615 10618 10620 10625 10633 10641 10649 10661 10667 10680 10685 10687 10697 10704 10713 10719 10723 10728 10733 10740 10747 10755 10761 10767 10771 10776 10782 10787 10790 10794 10797 10801 10803 10805 10806 10806 10806 10807 10807 10809 10810 10809 10810 10811 10811 10811 10811
10606 10603 10604 10603 10607 10611 10617 10625 10633 10645 10653 10663 10669 10678 10683 10690 10700 10708 10712 10716 10722 10729 10737 10744 10752 10757 10761 10768 10774 10779 10782 10785 10789 10793 10795 10797 10800 10800 10799 10800 10801 10803 10803 10804 10804 10805 10805 10805 10805
10593 10588 10586 10590 10591 10597 10602 10609 10619 10628 10639 10647 10657 10662 10668 10678 10687 10697 10703 10708 10714 10720 10727 10733 10741 10748 10752 10758 10763 10769 10773 10776 10781 10784 10786 10789 10792 10793 10793 10793 10794 10796 10797 10798 10800 10800 10799 10799 10799
10578 10574 10570 10574 10576 10581 10588 10597 10603 10614 10624 10632 10642 10649 10657 10667 10677 10685 10693 10697 10705 10710 10717 10722 10729 10736 10743 10749 10754 10759 10764 10768 10772 10775 10778 10780 10782 10785 10786 10786 10788 10788 10790 10792 10793 10794 10794 10793 10792
10563 10558 10556 10557 10562 10568 10575 10583 10590 10600 10610 10619 10628 10634 10643 10656 10664 10673 10681 10686 10697 10704 10707 10713 10720 10726 10732 10738 10744 10749 10753 10758 10762 10766 10769 10771 10774 10775 10778 10778 10780 10781 10783 10784 10786 10786 10787 10787 10786
10550 10544 10541 10540 10544 10553 10558 10564 10573 10586 10596 10605 10614 10621 10630 10642 10648 10659 10669 10677 10688 10695 10692 10700 10709 10715 10723 10728 10735 10740 10743 10748 10752 10757 10759 10762 10765 10767 10769 10771 10773 10774 10775 10776 10778 10778 10779 10780 10779
10539 10533 10530 10528 10531 10537 10540 10546 10555 10568 10578 10589 10599 10607 10616 10628 10635 10645 10657 10663 10675 10680 10683 10692 10699 10706 10713 10719 10724 10730 10736 10738 10743 10748 10751 10754 10757 10759 10762 10764 10766 10767 10769 10769 10770 10770 10770 10771 10772
10529 10524 10521 10516 10517 10520 10524 10528 10547 10561 10571 10579 10586 10593 10602 10612 10627 10638 10647 10656 10663 10670 10676 10685 10689 10695 10702 10709 10716 10722 10728 10730 10734 10739 10742 10745 10748 10752 10754 10757 10758 10759 10760 10762 10762 10762 10762 10762 10762
10521 10515 10511 10507 10506 10509 10515 10526 10536 10548 10557 10567 10578 10586 10592 10603 10614 10625 10636 10643 10650 10658 10668 10675 10679 10680 10689 10698 10707 10713 10719 10722 10725 10728 10731 10736 10740 10744 10746 10747 10748 10749 10751 10752 10754 10754 10754 10754 10754
10513 10508 10503 10501 10500 10503 10508 10514 10523 10535 10543 10553 10563 10572 10580 10587 10599 10608 10618 10628 10637 10648 10657 10662 10667 10672 10679 10687 10698 10704 10711 10714 10716 10718 10722 10727 10730 10732 10734 10737 10739 10741 10742 10744 10745 10746 10745 10746 10745
10508 10500 10495 10493 10492 10495 10499 10505 10512 10521 10530 10540 10552 10561 10569 10576 10585 10594 10603 10614 10624 10634 10643 10650 10655 10661 10668 10676 10685 10701 10695 10707 10703 10706 10711 10714 10716 10718 10721 10724 10727 10729 10732 10733 10734 10735 10735 10735 10735
10500 10493 10487 10484 10483 10486 10489 10495 10501 10507 10517 10526 10538 10549 10557 10565 10571 10582 10591 10600 10613 10621 10627 10636 10644 10649 10654 10662 10672 10682 10691 10686 10685 10690 10699 10698 10702 10706 10709 10713 10717 10718 10719 10720 10721 10722 10724 10725 10725
10497 10488 10481 10476 10474 10475 10478 10483 10490 10495 10502 10513 10525 10535 10544 10553 10561 10567 10577 10587 10597 10607 10615 10622 10629 10636 10643 10649 10657 10667 10672 10676 10685 10678 10686 10687 10691 10691 10695 10698 10701 10704 10707 10708 10710 10711 10712 10712 10714
10495 10484 10476 10468 10465 10466 10467 10473 10479 10486 10491 10500 10511 10521 10530 10540 10547 10554 10560 10570 10581 10591 10600 10607 10614 10622 10628 10635 10642 10650 10658 10661 10667 10672 10678 10677 10676 10672 10684 10685 10689 10692 10695 10695 10696 10696 10699 10699 10700
10490 10481 10472 10464 10458 10458 10458 10463 10470 10475 10481 10486 10495 10505 10514 10523 10531 10537 10544 10554 10564 10574 10582 10591 10597 10605 10613 10621 10626 10632 10637 10643 10651 10656 10661 10663 10665 10659 10670 10671 10674 10679 10680 10682 10682 10686 10686 10687 10688
10486 10476 10471 10461 10454 10453 10453 10454 10459 10466 10470 10476 10481 10490 10500 10510 10518 10526 10532 10539 10549 10557 10566 10573 10580 10586 10592 10601 10609 10616 10620 10627 10633 10636 10642 10648 10649 10652 10662 10654 10660 10665 10665 10665 10666 10671 10671 10673 10673
10484 10474 10468 10461 10454 10450 10449 10450 10452 10456 10461 10468 10473 10480 10489 10498 10505 10512 10519 10525 10532 10541 10550 10558 10563 10569 10576 10584 10591 10597 10603 10610 10615 10619 10623 10629 10635 10638 10643 10643 10644 10649 10648 10648 10652 10654 10657 10658 10657
10483 10473 10464 10459 10453 10449 10447 10446 10448 10451 10454 10459 10464 10471 10476 10482 10489 10495 10501 10508 10515 10523 10531 10538 10544 10550 10558 10565 10573 10578 10583 10591 10598 10601 10609 10616 10620 10623 10626 10629 10630 10632 10635 10635 10636 10640 10642 10639 10638
10485 10474 10466 10459 10452 10447 10445 10444 10444 10446 10448 10451 10456 10459 10464 10469 10474 10480 10487 10493 10499 10506 10513 10520 10527 10530 10536 10543 10549 10556 10562 10569 10576 10584 10592 10599 10604 10608 10612 10615 10618 10618 10620 10621 10624 10628 10626 10621 10621
10485 10473 10465 10459 10453 10446 10443 10443 10442 10442 10443 10445 10447 10451 10455 10457 10461 10466 10473 10477 10482 10489 10495 10500 10506 10510 10514 10520 10526 10533 10539 10548 10555 10564 10573 10582 10587 10589 10594 10600 10603 10605 10608 10609 10614 10613 10612 10605 10606
10483 10473 10464 10457 10451 10446 10444 10443 10442 10441 10442 10442 10443 10445 10447 10449 10450 10452 10457 10460 10464 10468 10473 10478 10485 10491 10494 10498 10502 10507 10515 10525 10533 10542 10555 10563 10566 10573 10580 10584 10588 10593 10593 10595 10599 10599 10597 10593 10589